Printer-friendly version

IAU Minor Planet Center

Minor Planet Center

(349) Dembowska

Orbital Elements

The following orbital elements are taken from MPC 31001:
  (349) Dembowska
Epoch 2007 Apr. 10.0 TT = JDT 2454200.5                 Goffin
M 355.49375              (2000.0)            P               Q
n   0.19703811     Peri.  347.48492     +0.93856849     -0.33635573
a   2.9248431      Node    32.50121     +0.32770515     +0.79863115
e   0.0879303      Incl.    8.25659     +0.10815973     +0.49905221
P   5.00           H    5.93          G   0.37           U   0
From 1414 observations at 72 oppositions, 1892-1996, mean residual 0".53.
An explanation of the orbital elements is available.

These orbital elements are also available in forms suitable for loading into a number of popular planetarium-type software programs.


Ephemeris

The following ephemeris is at intervals of five days. A daily ephemeris covering the same time interval is also available.

Personalized ephemerides for this object (and others) can be generated using the MPES.

Date    TT    R. A. (2000) Decl.     Delta      r     Elong.  Phase     V
 
2007 09 08    04 39.31   +24 53.8    2.447    2.697    93.1    21.9    10.8
2007 09 13    04 43.36   +25 16.5    2.385    2.699    97.0    21.7    10.8
2007 09 18    04 46.89   +25 38.7    2.323    2.702   101.0    21.4    10.7
2007 09 23    04 49.89   +26 00.4    2.261    2.704   105.2    21.0    10.6
2007 09 28    04 52.29   +26 21.6    2.202    2.706   109.5    20.4    10.6
2007 10 03    04 54.07   +26 42.4    2.144    2.709   114.0    19.7    10.5
2007 10 08    04 55.17   +27 02.8    2.088    2.712   118.6    18.9    10.4
2007 10 13    04 55.56   +27 22.7    2.034    2.714   123.4    17.9    10.3
2007 10 18    04 55.21   +27 41.8    1.984    2.717   128.3    16.7    10.3
2007 10 23    04 54.12   +28 00.2    1.938    2.720   133.4    15.4    10.2
2007 10 28    04 52.27   +28 17.4    1.896    2.723   138.7    13.9    10.1
2007 11 02    04 49.70   +28 33.3    1.859    2.726   144.1    12.3    10.0
2007 11 07    04 46.44   +28 47.4    1.827    2.729   149.6    10.6     9.9
2007 11 12    04 42.55   +28 59.5    1.801    2.732   155.2     8.7     9.8
2007 11 17    04 38.14   +29 09.1    1.782    2.735   160.8     6.8     9.7
2007 11 22    04 33.33   +29 16.2    1.769    2.738   166.1     5.0     9.7
2007 11 27    04 28.27   +29 20.5    1.763    2.742   170.6     3.4     9.6
2007 12 02    04 23.10   +29 22.0    1.765    2.745   172.3     2.8     9.6
2007 12 07    04 17.99   +29 21.0    1.773    2.748   169.7     3.7     9.6
2007 12 12    04 13.10   +29 17.6    1.789    2.752   165.0     5.3     9.7
2007 12 17    04 08.57   +29 12.5    1.812    2.755   159.5     7.2     9.8
2007 12 22    04 04.55   +29 06.0    1.841    2.759   153.9     9.0     9.9
2007 12 27    04 01.11   +28 58.8    1.877    2.763   148.3    10.8    10.0

Back to Bright Minor Planets

Astronomical Headlines Index

MPC


Valid HTML 4.01!